TimeMDT,TemperatureF,Dew PointF,Humidity,Sea Level PressureIn,VisibilityMPH,Wind Direction,Wind SpeedMPH,Gust SpeedMPH,PrecipitationIn,Events,Conditions,WindDirDegrees,DateUTC
12:56 AM,30.0,28.0,92,30.34,-9999.0,SSE,13.8,-,N/A,,Unknown,160,2012-10-12 06:56:00
1:56 AM,30.0,28.0,92,30.31,-9999.0,SSE,15.0,-,N/A,,Unknown,160,2012-10-12 07:56:00
2:56 AM,30.0,27.0,88,30.28,-9999.0,SSE,16.1,-,N/A,,Unknown,150,2012-10-12 08:56:00
3:56 AM,28.9,27.0,92,30.25,-9999.0,SSE,17.3,-,N/A,,Unknown,160,2012-10-12 09:56:00
4:56 AM,30.0,27.0,88,30.19,-9999.0,SSE,20.7,-,N/A,,Unknown,160,2012-10-12 10:56:00
5:56 AM,32.0,27.0,82,30.15,-9999.0,South,28.8,34.5,N/A,,Unknown,170,2012-10-12 11:56:00
6:56 AM,30.9,26.1,82,30.12,-9999.0,SSE,29.9,35.7,N/A,,Unknown,160,2012-10-12 12:56:00
7:56 AM,32.0,27.0,82,30.08,-9999.0,SSE,31.1,36.8,N/A,,Unknown,160,2012-10-12 13:56:00
8:56 AM,37.0,28.0,70,30.06,-9999.0,South,27.6,39.1,N/A,,Unknown,170,2012-10-12 14:56:00
9:56 AM,43.0,28.0,56,30.01,-9999.0,South,35.7,43.7,N/A,,Unknown,170,2012-10-12 15:56:00
10:56 AM,48.9,28.9,46,29.97,-9999.0,South,29.9,40.3,N/A,,Unknown,180,2012-10-12 16:56:00
11:56 AM,55.0,30.0,38,29.94,-9999.0,South,27.6,35.7,0.01,,Unknown,190,2012-10-12 17:56:00
12:56 PM,57.9,30.0,35,29.90,-9999.0,South,27.6,36.8,N/A,,Unknown,190,2012-10-12 18:56:00
1:56 PM,62.1,30.9,31,29.85,-9999.0,South,27.6,33.4,N/A,,Unknown,170,2012-10-12 19:56:00
2:56 PM,64.9,32.0,29,29.81,-9999.0,South,24.2,31.1,N/A,,Unknown,180,2012-10-12 20:56:00
3:56 PM,64.9,32.0,29,29.81,-9999.0,South,19.6,-,N/A,,Unknown,170,2012-10-12 21:56:00
4:56 PM,64.0,33.1,31,29.78,-9999.0,South,11.5,-,N/A,,Unknown,170,2012-10-12 22:56:00
5:56 PM,62.1,34.0,35,29.76,-9999.0,South,10.4,-,N/A,,Unknown,170,2012-10-12 23:56:00
6:56 PM,52.0,34.0,50,29.77,-9999.0,SSE,13.8,-,N/A,,Unknown,160,2012-10-13 00:56:00
7:56 PM,52.0,33.1,49,29.75,-9999.0,North,-9999.0,-,N/A,,Unknown,0,2012-10-13 01:56:00
8:56 PM,50.0,34.0,54,29.73,-9999.0,SSE,13.8,-,N/A,,Unknown,160,2012-10-13 02:56:00
10:56 PM,48.9,37.0,64,29.72,-9999.0,South,16.1,-,N/A,,Unknown,180,2012-10-13 04:56:00
11:56 PM,48.0,37.9,68,29.70,-9999.0,South,12.7,-,N/A,,Unknown,170,2012-10-13 05:56:00